Wind_Speed
57 59 55 54 52 53 56 57 57 56 52 50 52 54 57 58 62 63 59 51 50 49 47 44 42 43 40 56 51 49 39 43 47 44 47 42 40 43 36 45 40 34 31
55 52 52 55 58 60 59 59 59 56 54 48 50 53 55 52 54 57 56 53 48 45 46 42 38 39 46 46 43 41 45 37 40 39 39 37 35 37 36 42 38 36 32
48 52 44 54 58 57 60 67 63 63 57 52 48 48 51 50 48 49 53 51 47 44 42 40 37 36 36 38 46 43 37 35 38 40 34 39 34 35 34 36 37 36 31
41 48 62 57 46 41 56 52 56 63 62 51 47 41 38 39 41 42 44 45 47 45 43 40 39 38 39 41 45 49 40 32 34 42 34 36 32 32 35 38 30 36 28
43 42 43 49 50 48 50 48 42 38 33 43 46 39 36 36 38 37 39 41 42 44 45 43 42 42 41 41 40 49 50 41 39 42 38 34 35 39 43 38 33 33 28
47 47 44 43 44 55 50 44 44 33 35 39 41 41 40 38 40 39 38 39 41 41 43 45 44 44 42 40 40 42 54 45 39 45 43 36 40 40 36 28 28 31 28
46 50 49 47 44 41 40 42 44 41 43 43 45 43 40 42 43 41 40 39 39 41 42 43 43 43 42 42 41 40 44 52 38 45 38 33 39 42 35 31 29 32 33
49 46 45 46 48 47 44 44 46 50 52 49 46 45 43 40 40 41 40 40 39 39 40 40 40 40 41 41 39 37 43 49 42 44 34 33 32 36 36 36 35 36 28
51 53 54 55 54 53 50 50 50 43 50 53 51 49 45 40 38 42 40 39 40 39 40 38 37 36 37 38 39 37 37 47 46 44 40 37 38 39 41 41 39 35 27
56 52 53 52 52 52 54 54 53 54 49 50 58 54 52 42 40 39 40 40 39 38 37 35 34 32 34 36 36 34 27 37 49 48 44 40 38 36 37 38 36 29 26
62 60 56 54 52 49 50 49 49 52 56 56 59 61 51 41 32 34 39 39 38 37 36 33 32 30 30 30 32 29 26 28 29 38 40 40 33 33 34 30 26 27 23
52 59 59 55 54 53 52 52 51 50 52 53 60 55 52 53 44 34 37 38 40 37 37 35 32 32 30 30 29 28 24 23 25 29 29 34 37 34 33 26 22 19 20
40 45 54 59 58 58 56 54 55 51 53 55 58 55 53 52 53 43 39 37 39 38 36 35 35 33 31 25 27 24 20 21 25 25 21 25 27 32 24 19 19 21 21
32 34 37 44 53 57 57 55 53 53 53 56 56 55 54 54 50 48 45 42 44 39 38 36 37 35 31 27 26 21 17 18 21 24 25 27 31 19 20 22 19 20 17
27 30 32 35 40 47 55 59 61 59 57 56 56 53 54 58 58 54 54 54 49 44 41 38 35 34 31 31 25 22 18 17 19 22 25 29 19 16 23 20 18 15 17
23 28 32 35 37 40 44 48 53 56 60 60 60 58 56 56 59 59 57 53 53 51 44 39 34 27 29 31 24 25 21 19 20 21 27 22 20 23 21 17 15 16 14
31 35 36 39 40 43 46 48 48 47 49 51 56 61 63 64 65 62 57 56 53 54 51 42 36 27 31 31 25 25 19 21 18 22 22 16 24 23 18 16 16 13 15
12 17 24 28 27 26 39 51 52 53 55 57 57 54 53 53 52 52 52 58 62 55 51 50 38 32 34 30 26 23 18 23 20 22 17 22 23 20 18 16 14 15 13
20 18 21 23 17 22 20 20 32 36 41 40 45 53 57 52 49 45 46 42 46 55 53 47 39 38 35 29 24 24 21 23 19 20 29 26 22 21 18 16 16 14 11
23 14 25 20 21 15 20 19 24 30 32 29 26 26 35 46 55 43 34 37 38 42 50 46 40 37 34 27 23 24 24 20 22 31 27 24 22 18 18 18 16 13 11
15 17 26 15 9 8 4 6 20 22 25 23 22 24 23 30 35 36 35 32 30 34 44 46 38 35 30 25 26 26 20 18 22 29 24 21 18 17 18 17 17 13 14
25 29 33 27 21 19 21 23 28 28 24 22 20 24 30 32 38 36 36 32 34 36 41 40 37 30 30 31 32 20 13 19 28 22 20 19 16 17 16 17 14 13 13
41 31 37 38 31 25 24 26 28 29 31 32 30 27 27 32 38 41 36 42 42 41 39 36 35 38 35 31 25 25 20 22 21 21 19 18 15 16 16 13 12 12 10
45 49 41 38 41 44 42 42 42 45 39 36 37 32 33 36 37 36 33 36 39 40 41 43 41 37 32 27 28 27 24 18 18 18 19 15 14 16 14 13 13 10 7
43 44 49 52 39 39 41 45 43 38 37 34 32 30 33 41 42 41 42 47 47 47 47 43 38 32 29 27 24 20 19 19 20 21 15 13 15 17 16 15 12 8 8
31 33 34 39 40 48 49 42 38 37 32 32 33 35 41 49 52 50 49 46 42 41 42 33 29 25 24 24 22 19 20 21 19 15 14 15 16 16 16 14 10 9 11
Wind_Direction
241 237 239 239 236 237 239 242 242 247 253 259 258 261 262 255 251 253 257 261 261 260 259 261 256 251 252 255 271 269 267 266 266 266 270 276 281 271 269 269 269 272 285
233 235 239 234 232 232 238 241 243 246 249 255 254 258 262 263 256 250 252 256 258 257 257 255 257 256 252 249 251 260 266 269 267 263 266 275 261 262 261 265 260 277 281
225 229 231 232 235 238 237 240 239 246 243 246 251 251 250 256 254 250 247 251 254 256 257 255 255 261 262 259 254 248 250 259 256 255 261 267 263 253 259 268 258 278 291
224 229 232 237 244 247 239 244 259 246 243 243 243 243 246 249 251 248 248 248 249 253 256 258 255 256 256 255 254 245 238 247 255 253 249 255 252 254 252 258 277 273 286
249 235 237 246 253 252 256 256 253 239 242 246 244 251 256 259 254 248 249 250 248 249 251 252 252 253 255 257 257 250 234 234 253 245 239 246 247 251 252 249 271 275 282
246 244 239 251 256 254 246 247 250 244 241 248 256 253 249 255 255 249 246 245 245 244 246 248 250 250 252 257 265 262 242 233 240 243 235 240 248 251 245 251 267 277 276
244 239 240 244 252 255 252 254 255 244 238 241 249 255 250 253 255 252 249 245 244 242 241 242 244 246 249 251 259 261 251 240 227 239 234 244 250 243 257 265 276 284 281
246 247 245 247 246 252 248 247 246 247 244 243 243 248 249 249 250 244 246 244 243 241 240 240 242 245 246 247 252 262 251 244 228 228 226 240 243 250 257 265 277 277 266
245 245 243 247 247 247 248 242 241 245 243 239 236 241 244 246 244 240 237 238 238 237 237 239 241 244 246 248 246 256 255 247 240 224 229 237 242 252 260 269 274 267 253
246 244 245 245 245 248 248 247 246 243 246 252 238 239 239 241 239 240 236 234 234 232 232 233 234 236 239 244 241 252 257 256 245 223 231 240 247 257 263 266 266 265 249
247 245 245 244 248 247 245 247 249 246 245 249 239 237 234 226 233 238 240 235 233 231 230 231 233 235 236 245 243 251 255 259 240 224 233 240 249 258 262 259 257 250 251
245 247 245 244 244 245 244 248 250 248 236 237 230 231 229 233 234 240 242 238 233 228 230 229 231 235 235 239 240 252 254 250 256 248 244 243 247 254 250 239 240 244 263
238 242 244 245 243 243 246 249 247 247 237 230 235 235 235 232 235 236 243 239 233 228 226 229 230 232 236 235 233 244 246 248 248 246 239 238 240 241 242 222 234 252 267
242 245 246 245 241 240 241 243 244 244 243 240 235 235 234 233 232 234 240 241 237 239 232 226 230 232 234 234 235 238 245 247 241 240 236 235 228 232 216 223 236 253 272
250 251 251 248 246 244 242 240 240 239 240 239 238 235 236 232 232 235 238 237 238 235 237 232 228 227 230 235 235 237 238 250 242 234 233 226 229 211 210 223 239 260 267
257 256 254 252 247 242 240 240 240 240 238 236 235 234 235 234 233 233 230 234 231 238 234 234 226 223 225 232 230 234 238 243 241 228 233 245 230 207 217 228 244 250 262
264 262 260 256 254 253 248 246 245 242 239 236 234 236 237 237 237 234 229 232 236 235 235 236 226 222 223 224 225 228 225 233 233 231 238 227 197 208 217 229 233 242 252
308 299 292 282 272 267 263 249 241 235 238 236 235 234 233 232 231 232 230 228 228 229 235 225 215 227 220 217 217 225 215 232 218 233 204 197 205 209 216 220 223 234 237
308 293 305 314 301 274 227 230 225 226 224 232 235 231 232 228 230 228 225 218 221 225 222 214 214 217 212 210 212 214 211 216 232 230 191 201 207 211 212 209 219 228 229
344 344 336 316 300 269 246 228 219 215 218 224 216 208 215 219 220 214 216 203 211 214 215 208 207 208 203 200 204 206 209 219 234 191 192 202 207 209 205 208 216 225 233
29 43 25 20 32 81 80 181 193 194 186 200 198 198 209 198 190 191 187 192 200 198 196 199 199 196 189 187 191 196 203 230 200 190 197 203 206 210 208 211 219 224 236
58 51 46 57 76 82 74 115 139 153 159 156 160 160 158 168 166 170 167 172 169 171 178 184 184 175 172 180 183 186 213 201 186 192 198 202 205 210 213 218 221 230 235
66 67 65 65 73 77 83 93 115 127 130 132 124 128 142 150 156 156 152 149 147 152 158 164 164 165 169 169 178 177 183 172 187 195 200 202 201 208 216 215 216 221 229
63 69 69 72 75 80 83 93 103 116 118 118 113 111 118 128 145 154 149 142 142 142 148 155 157 160 167 167 172 176 176 184 193 200 203 200 204 210 211 210 215 224 230
64 61 64 75 88 86 89 92 102 109 112 114 114 115 123 132 133 137 138 135 138 145 154 155 158 160 157 161 165 170 178 189 200 201 196 201 208 209 213 215 218 229 227
67 57 60 66 76 81 95 100 104 104 104 104 111 122 125 129 131 133 136 143 146 150 152 150 152 155 166 175 179 184 189 198 196 190 199 207 208 209 209 211 218 223 223
Height
5630 5635 5639 5642 5644 5648 5651 5655 5658 5664 5669 5673 5676 5678 5681 5685 5688 5691 5696 5702 5707 5711 5714 5717 5720 5725 5726 5730 5730 5734 5740 5742 5744 5751 5755 5755 5754 5754 5753 5754 5758 5759 5759
5610 5617 5623 5625 5629 5633 5637 5641 5645 5648 5655 5659 5663 5666 5666 5670 5674 5678 5683 5688 5692 5697 5702 5706 5709 5712 5716 5719 5721 5725 5728 5733 5737 5738 5742 5743 5745 5746 5745 5745 5749 5751 5751
5599 5607 5609 5612 5618 5621 5625 5624 5629 5632 5638 5645 5649 5652 5654 5656 5660 5664 5669 5675 5679 5684 5688 5693 5698 5700 5701 5705 5709 5713 5718 5721 5726 5730 5731 5734 5734 5736 5738 5739 5741 5742 5742
5589 5593 5599 5601 5603 5606 5608 5610 5616 5617 5625 5631 5635 5638 5641 5644 5648 5651 5656 5661 5668 5672 5676 5680 5684 5688 5693 5695 5698 5700 5704 5709 5715 5719 5721 5724 5727 5728 5728 5731 5735 5735 5736
5579 5582 5586 5590 5592 5596 5599 5603 5606 5607 5612 5618 5623 5626 5630 5634 5637 5640 5643 5648 5654 5660 5665 5670 5674 5678 5682 5685 5687 5688 5692 5697 5704 5707 5712 5714 5717 5719 5720 5723 5726 5728 5728
5567 5571 5573 5577 5580 5585 5589 5593 5595 5599 5603 5608 5611 5614 5619 5623 5627 5631 5634 5638 5644 5649 5655 5659 5664 5667 5670 5673 5675 5677 5681 5684 5690 5697 5701 5705 5708 5710 5712 5713 5718 5720 5719
5555 5558 5561 5565 5569 5572 5576 5579 5584 5589 5592 5596 5600 5603 5608 5613 5617 5621 5625 5628 5633 5639 5644 5648 5652 5656 5659 5663 5665 5667 5670 5674 5678 5685 5692 5696 5699 5701 5705 5706 5709 5710 5711
5540 5543 5546 5550 5555 5559 5563 5567 5571 5576 5582 5586 5590 5593 5597 5602 5606 5610 5614 5619 5624 5629 5634 5638 5643 5646 5650 5654 5657 5659 5661 5665 5668 5676 5684 5688 5692 5693 5697 5700 5702 5703 5703
5525 5528 5532 5535 5539 5544 5549 5554 5558 5561 5567 5571 5577 5581 5586 5591 5595 5600 5603 5609 5614 5619 5624 5628 5633 5637 5640 5645 5649 5651 5653 5657 5660 5666 5673 5679 5684 5688 5690 5693 5694 5693 5694
5507 5512 5516 5520 5523 5528 5532 5538 5542 5547 5551 5557 5563 5567 5574 5580 5584 5588 5593 5598 5605 5610 5614 5619 5624 5629 5632 5635 5640 5644 5647 5647 5652 5658 5665 5672 5675 5680 5684 5685 5685 5685 5686
5489 5494 5499 5504 5508 5512 5516 5520 5525 5531 5536 5542 5549 5555 5561 5568 5572 5577 5582 5588 5595 5600 5606 5611 5616 5620 5625 5628 5633 5637 5639 5641 5644 5650 5656 5662 5668 5673 5676 5676 5676 5677 5679
5470 5476 5482 5488 5493 5497 5501 5506 5510 5515 5521 5527 5535 5542 5549 5556 5562 5568 5572 5577 5584 5590 5596 5602 5608 5613 5619 5622 5627 5630 5632 5635 5638 5643 5648 5655 5661 5664 5666 5667 5669 5672 5673
5457 5461 5466 5471 5476 5480 5484 5490 5493 5499 5505 5512 5522 5529 5536 5542 5550 5557 5562 5567 5573 5580 5586 5593 5600 5606 5612 5617 5621 5624 5627 5631 5634 5639 5643 5648 5651 5655 5658 5662 5664 5666 5666
5448 5450 5452 5454 5458 5462 5467 5472 5477 5483 5490 5498 5506 5515 5522 5528 5535 5545 5552 5557 5563 5570 5578 5584 5591 5599 5606 5611 5614 5619 5622 5625 5629 5632 5636 5640 5643 5647 5652 5655 5658 5660 5659
5439 5440 5441 5442 5443 5445 5449 5454 5459 5466 5473 5481 5489 5496 5504 5513 5522 5530 5540 5546 5553 5561 5568 5574 5583 5592 5599 5605 5609 5614 5618 5621 5625 5627 5630 5632 5636 5642 5646 5650 5653 5653 5654
5430 5428 5427 5427 5428 5430 5432 5436 5441 5448 5455 5463 5472 5479 5487 5495 5504 5516 5526 5533 5541 5549 5557 5566 5577 5586 5593 5598 5603 5609 5613 5616 5619 5622 5624 5627 5631 5637 5642 5644 5647 5649 5649
5419 5415 5413 5413 5413 5415 5417 5422 5427 5432 5438 5444 5452 5461 5470 5479 5489 5499 5510 5519 5528 5537 5547 5558 5570 5580 5586 5591 5598 5604 5607 5611 5614 5617 5618 5621 5628 5633 5636 5640 5642 5643 5645
5409 5405 5401 5399 5398 5397 5398 5401 5407 5414 5421 5428 5435 5443 5452 5462 5473 5482 5493 5503 5514 5525 5536 5549 5562 5573 5578 5585 5592 5598 5602 5606 5608 5611 5614 5619 5625 5629 5633 5635 5638 5640 5641
5404 5398 5393 5387 5385 5382 5380 5383 5388 5395 5403 5410 5418 5426 5437 5450 5459 5468 5479 5492 5502 5512 5526 5540 5556 5564 5572 5580 5587 5592 5597 5601 5604 5606 5612 5617 5622 5626 5629 5631 5634 5636 5637
5399 5394 5389 5381 5375 5373 5373 5375 5380 5388 5396 5403 5410 5416 5424 5432 5443 5460 5474 5486 5495 5505 5517 5534 5548 5558 5567 5574 5581 5587 5591 5595 5600 5604 5610 5615 5620 5623 5625 5628 5631 5633 5634
5401 5397 5387 5377 5371 5368 5366 5366 5374 5383 5393 5400 5407 5413 5419 5426 5440 5457 5469 5480 5488 5498 5513 5530 5544 5554 5562 5570 5578 5582 5588 5593 5596 5603 5607 5612 5617 5620 5622 5625 5629 5630 5631
5407 5401 5392 5383 5378 5376 5374 5373 5376 5384 5392 5399 5405 5411 5420 5430 5441 5455 5467 5476 5486 5498 5514 5529 5541 5551 5559 5567 5574 5580 5584 5587 5593 5600 5605 5610 5614 5618 5620 5623 5625 5627 5629
5416 5409 5403 5396 5391 5388 5386 5386 5387 5392 5400 5409 5415 5421 5427 5435 5446 5461 5471 5481 5492 5505 5517 5529 5539 5547 5556 5564 5571 5576 5581 5584 5592 5599 5604 5608 5611 5615 5618 5621 5623 5625 5626
5430 5424 5417 5411 5408 5405 5402 5400 5403 5408 5415 5422 5427 5433 5438 5445 5456 5468 5477 5487 5498 5509 5520 5530 5539 5548 5556 5562 5568 5574 5579 5586 5593 5597 5602 5605 5608 5613 5616 5618 5620 5622 5623
5443 5438 5435 5430 5426 5424 5423 5423 5424 5427 5430 5434 5439 5444 5449 5456 5466 5475 5485 5495 5505 5515 5525 5533 5542 5549 5556 5563 5569 5575 5580 5586 5591 5596 5599 5603 5607 5610 5613 5616 5618 5619 5620
5457 5455 5451 5448 5445 5442 5440 5442 5443 5445 5448 5451 5454 5458 5464 5471 5478 5487 5496 5504 5513 5522 5531 5539 5546 5553 5559 5565 5570 5575 5581 5586 5591 5593 5597 5601 5604 5607 5610 5613 5615 5616 5617